Theta_e
293 295 295 295 295 296 298 299 301 303 303 303 303 303 303 303 302 300 301 301 300 299 298 297 295 294 293 292 290 290 290 290 290 290 290 290 290 291 291 291 291 291 291 291 290 291 289 289 289 289 289 289 289 288 288 289 289 289 289 290 288 286 287 287 287 288 292 294 295 295 293 291 292 292 291 290 290 289 289 292 290 288 287 287 287
293 293 294 294 294 295 297 298 300 301 301 301 301 302 302 301 300 299 299 298 297 298 297 296 296 294 291 289 289 289 288 288 288 288 289 290 289 289 290 290 290 290 290 290 289 289 288 288 288 287 288 288 288 288 288 289 288 288 288 286 287 287 285 286 287 286 284 285 289 292 292 291 289 289 290 289 289 288 287 290 289 287 286 287 287
292 293 294 294 294 295 295 296 299 300 300 300 300 299 299 298 297 297 296 295 295 295 294 293 293 292 290 289 288 287 288 288 288 288 288 288 288 288 289 289 289 288 289 289 288 288 287 287 287 287 287 287 287 286 286 286 286 286 286 285 284 285 285 286 286 286 283 284 287 286 286 287 290 285 287 288 287 287 286 288 288 286 286 286 286
291 292 292 293 294 294 293 294 297 299 299 299 299 297 296 295 294 294 293 293 293 293 293 292 291 290 289 289 288 288 286 288 287 287 287 287 287 287 287 287 288 287 287 287 287 286 286 286 286 286 286 286 286 285 285 285 285 285 285 286 284 283 283 283 285 285 285 283 279 284 284 281 277 280 283 285 285 285 285 285 287 285 285 285 285
291 292 292 293 293 293 293 294 296 298 298 297 297 296 295 293 292 292 292 292 292 292 291 291 289 288 288 288 287 286 286 285 285 285 285 286 286 286 286 286 287 286 287 286 286 285 285 285 285 285 286 285 286 285 285 285 285 285 284 284 284 282 282 281 283 285 284 285 283 279 278 278 279 279 281 281 283 284 283 283 285 284 283 284 283
292 292 293 293 293 293 292 293 296 297 295 296 297 295 293 292 291 291 291 291 291 291 290 290 288 287 286 285 284 283 283 283 283 283 283 284 284 285 286 286 286 286 286 286 286 286 285 285 285 285 285 285 285 285 284 285 284 284 284 284 284 283 282 282 281 283 284 284 284 283 282 278 278 278 278 276 280 281 281 282 282 282 282 283 283
292 292 293 293 292 292 292 293 294 296 295 296 296 293 292 291 291 291 291 290 290 290 289 289 288 287 286 285 284 284 283 283 283 284 284 284 285 285 285 286 286 286 286 286 286 286 286 285 285 285 285 285 285 285 284 284 284 284 284 284 283 285 283 282 281 281 281 283 283 282 283 282 281 278 276 276 273 275 279 280 280 281 281 281 282
291 291 293 293 293 292 292 293 293 294 295 295 294 292 291 290 290 290 290 290 290 290 289 289 288 287 286 285 285 284 284 283 283 283 284 285 285 284 285 285 285 286 286 285 285 285 285 285 284 285 285 284 285 284 284 283 284 284 284 283 284 283 282 282 280 281 280 280 282 281 281 281 280 280 278 277 277 275 276 279 280 280 280 280 281
291 291 292 293 292 292 293 293 292 292 294 294 293 291 291 290 290 290 290 290 289 290 289 288 288 287 286 285 284 285 284 284 285 285 284 284 284 284 285 285 285 285 285 285 284 285 285 284 284 284 284 283 284 283 283 283 283 282 282 282 282 282 282 282 281 280 280 279 279 279 279 278 278 279 278 278 277 274 275 275 277 279 278 278 280
291 292 292 292 292 292 292 291 291 291 292 292 291 290 290 290 289 289 289 289 289 289 289 288 287 287 286 285 284 284 285 284 284 283 283 283 283 284 284 284 284 284 284 284 284 284 283 283 283 283 283 283 283 282 282 282 282 282 281 282 281 281 281 282 281 279 280 280 279 279 278 278 277 277 276 276 275 276 276 275 276 275 275 276 279
290 291 291 292 292 291 290 290 290 291 291 290 289 289 289 289 288 288 288 289 289 288 288 287 287 287 286 285 285 284 284 284 284 283 283 283 283 283 283 283 283 282 283 283 283 283 283 283 282 282 282 283 282 282 281 281 281 281 281 281 281 280 280 280 281 280 280 279 279 278 278 279 278 277 276 276 276 274 274 275 275 276 275 275 276
290 290 290 290 289 288 289 288 289 289 289 289 288 288 288 288 288 288 287 288 288 288 287 287 287 286 285 285 285 285 284 284 284 283 283 283 283 282 282 282 282 282 282 282 282 282 282 281 282 282 282 281 281 281 281 281 281 280 280 280 280 280 280 280 279 279 278 279 278 278 277 279 279 278 278 278 277 276 276 274 274 275 275 275 278
290 290 290 289 289 287 288 288 288 288 288 288 287 287 287 287 287 287 287 287 287 287 287 286 286 286 286 285 285 286 285 285 284 283 283 283 282 282 282 281 281 281 280 281 280 281 281 281 281 280 280 281 281 280 280 280 280 279 279 278 278 278 278 279 278 278 278 278 277 277 277 278 278 278 278 278 277 277 276 273 275 275 273 275 276
290 290 289 289 289 288 288 287 288 288 288 287 287 287 287 287 287 287 287 287 287 287 287 286 286 286 286 286 286 286 285 285 284 284 283 283 283 282 281 281 281 281 280 280 280 281 281 281 281 281 280 280 280 280 280 279 279 279 278 278 278 277 278 278 278 277 277 277 277 277 277 277 277 278 276 278 277 276 275 274 274 274 275 274 275
289 289 289 288 288 288 288 287 287 287 287 287 287 286 287 286 287 287 287 287 287 287 287 287 287 286 286 286 286 285 285 285 284 284 283 282 282 282 281 281 281 280 280 280 281 281 281 281 281 280 280 279 279 279 280 278 278 279 279 278 278 277 277 278 277 277 278 277 276 277 278 276 276 278 276 277 277 277 276 275 275 273 273 274 273
289 288 288 287 287 287 287 287 287 287 287 287 286 286 286 286 287 287 287 287 287 287 287 287 287 286 286 285 285 285 285 284 284 283 282 283 282 281 281 280 281 281 281 281 281 281 281 280 280 279 279 279 278 278 277 277 277 278 277 277 277 279 277 276 277 276 276 276 276 276 277 276 276 276 277 276 276 277 277 276 276 274 273 270 273
288 288 287 287 286 286 287 287 286 287 287 287 287 286 287 286 286 286 287 286 287 287 287 286 285 285 284 284 284 284 284 283 283 282 281 281 281 280 280 280 280 281 281 281 280 280 280 279 279 278 278 278 277 277 277 276 276 277 277 275 276 275 276 276 276 276 276 276 276 276 276 276 276 276 276 276 276 276 276 275 276 274 275 272 270
288 287 287 287 287 286 286 287 287 287 287 286 286 286 286 287 286 286 286 286 286 286 285 285 284 284 283 283 283 283 283 282 282 281 281 281 280 280 280 280 280 281 281 281 280 280 279 279 278 278 277 277 276 276 276 276 276 276 276 275 275 275 275 275 276 275 275 276 276 275 275 276 275 275 275 275 275 274 274 275 274 275 275 273 272
287 287 287 287 287 286 286 286 286 286 287 286 286 286 286 285 286 286 286 286 285 285 284 284 284 285 284 283 283 282 282 282 281 281 281 280 280 280 280 280 280 280 280 279 279 279 278 278 277 277 277 276 275 275 275 275 275 275 275 275 274 274 274 274 274 276 276 275 274 274 274 274 274 274 274 274 274 274 275 274 275 275 274 274 272
287 287 287 287 287 286 286 286 285 286 286 286 285 285 285 285 285 285 285 284 284 284 284 283 283 284 283 282 282 282 282 282 281 281 280 280 280 280 280 280 280 280 279 279 278 278 277 277 277 276 276 275 275 275 274 274 274 274 274 275 274 273 273 273 273 274 276 275 274 273 273 273 274 273 274 274 273 274 274 275 274 274 274 273 273
288 288 287 287 287 286 285 285 285 285 285 285 285 285 285 285 285 285 284 283 284 283 283 283 283 283 282 282 281 281 281 281 281 280 280 279 279 280 280 279 279 279 278 278 277 277 277 276 276 276 275 275 274 274 274 273 273 273 273 274 273 273 272 272 273 272 273 273 273 273 273 273 273 273 273 274 273 273 273 274 274 274 274 273 272
288 288 288 287 286 285 284 284 283 284 284 285 285 285 284 284 285 284 284 284 283 283 283 283 282 282 281 281 281 281 281 281 280 280 279 279 279 279 279 279 278 278 278 278 277 277 277 276 276 275 275 274 274 273 273 272 272 272 273 275 273 272 272 272 272 272 272 274 272 272 272 272 273 272 272 272 272 272 272 272 272 273 272 273 272
289 288 288 287 287 286 285 284 284 284 284 285 284 285 284 284 284 283 284 283 283 283 283 283 282 281 281 281 281 281 280 280 280 279 279 279 279 278 278 278 278 277 277 277 277 276 276 276 275 275 274 273 273 272 272 272 272 271 271 271 272 271 272 271 272 272 272 272 272 272 272 272 273 271 272 271 272 271 272 271 271 272 271 271 272
288 288 287 287 286 285 284 283 283 283 283 284 284 284 284 284 284 283 283 282 283 283 282 282 281 281 281 280 280 280 280 279 279 279 279 278 278 278 278 277 277 277 277 276 276 276 276 275 275 274 273 273 273 272 272 272 272 271 271 271 271 271 271 271 272 272 272 272 272 271 272 272 271 271 271 271 271 271 271 271 271 271 271 271 271
288 287 287 286 285 284 284 284 283 283 284 284 284 284 283 283 283 283 283 283 283 282 282 282 281 280 280 280 280 280 279 279 279 278 278 278 277 277 277 276 276 276 276 276 275 275 275 275 275 273 273 272 272 272 272 271 271 271 271 271 271 271 272 272 272 272 275 272 272 272 271 272 271 270 270 270 271 270 271 271 270 271 271 271 272
288 287 286 285 285 285 284 284 284 283 284 284 284 284 283 283 283 283 283 282 282 282 282 281 281 280 280 280 280 279 279 279 278 278 277 277 277 277 276 276 277 276 275 275 275 275 276 275 274 273 273 272 272 271 271 271 270 271 271 271 271 271 272 272 272 272 272 272 272 272 272 272 271 270 270 270 270 270 270 270 270 270 271 271 270
288 287 286 285 284 284 284 284 284 283 283 284 284 283 283 283 282 282 282 282 282 282 281 281 281 280 280 280 279 279 279 278 278 277 277 276 276 276 277 276 277 276 275 275 276 276 275 274 273 272 272 272 271 271 270 270 270 270 270 271 271 271 272 272 272 272 272 272 272 272 271 272 271 271 270 270 269 270 270 269 270 270 271 270 271
286 286 285 285 285 285 284 284 283 283 283 283 284 284 283 283 282 282 282 282 282 282 281 281 280 280 280 280 280 279 278 278 277 277 276 276 276 276 277 277 276 276 275 275 275 275 274 274 273 272 272 271 270 270 270 269 270 270 271 271 271 271 271 272 272 272 272 272 272 272 272 272 271 271 271 270 271 270 270 269 270 270 271 272 272
287 287 286 286 285 285 284 284 284 283 282 282 282 283 283 283 283 282 282 282 282 282 281 281 280 280 280 280 279 279 278 277 277 277 276 276 276 276 276 277 276 276 276 275 275 275 273 273 272 272 271 271 271 271 271 270 270 271 271 271 271 270 270 270 271 271 271 271 271 271 272 272 272 276 277 276 276 276 271 267 268 270 271 271 271
287 287 287 287 287 286 285 285 284 283 283 282 283 283 284 283 283 283 282 283 282 282 281 280 280 280 280 279 279 278 278 278 277 277 277 276 276 276 276 276 276 276 275 275 274 273 272 272 272 272 271 271 271 271 273 276 276 272 271 272 271 270 270 270 270 270 270 270 271 271 272 276 276 276 276 276 276 276 276 275 272 272 272 272 270
288 288 288 288 287 287 285 284 284 284 283 283 283 283 284 283 283 283 283 283 282 281 281 280 280 280 280 279 279 279 278 278 278 278 277 276 276 275 275 276 275 275 274 273 273 273 273 272 272 271 270 270 270 271 276 278 278 278 273 271 270 270 270 270 270 269 269 269 269 270 270 272 274 274 273 275 275 276 276 276 277 277 276 274 272
288 289 288 288 287 286 285 285 285 284 284 284 283 283 283 283 284 283 283 283 282 282 281 281 281 280 280 279 279 279 279 278 278 278 277 277 276 276 275 275 274 274 273 273 273 273 272 272 271 270 269 269 270 274 277 279 280 279 277 272 270 269 269 271 271 270 270 270 269 270 270 270 270 269 270 270 273 274 275 275 276 276 277 277 278
289 289 289 288 288 287 287 286 285 285 285 285 285 284 283 284 284 284 283 282 282 281 281 281 281 281 280 280 280 279 279 278 278 277 277 276 276 275 275 274 274 274 273 272 272 272 271 271 270 269 269 269 269 276 278 279 280 280 280 276 273 272 272 271 272 271 271 271 270 270 269 270 270 274 272 270 269 269 273 275 276 277 277 278 278
290 289 289 289 289 288 288 287 287 286 286 286 285 284 284 284 284 284 283 282 282 281 281 281 281 281 280 280 280 279 279 278 278 277 276 276 275 275 275 274 274 273 273 273 272 271 271 270 270 269 269 268 268 274 278 280 280 280 280 278 274 274 273 272 272 272 272 272 271 269 268 268 269 269 269 270 270 269 269 270 271 272 273 275 277
289 288 288 288 289 288 288 287 287 286 286 285 285 285 284 284 284 283 283 282 282 281 281 281 281 280 280 279 279 279 279 278 278 277 276 275 275 274 274 274 273 273 272 272 271 271 270 269 268 268 268 268 268 275 278 280 280 280 279 278 274 274 273 272 273 273 273 273 271 270 268 268 268 268 269 270 269 270 271 272 273 274 275 275 275
289 289 289 288 288 288 288 288 288 287 286 286 285 285 284 283 284 283 283 283 282 281 281 281 281 280 280 280 280 280 279 278 277 277 276 276 275 274 274 273 273 273 272 272 271 270 270 268 268 267 267 267 267 276 277 279 280 280 279 276 274 273 272 272 272 272 272 271 270 269 269 268 268 268 272 275 275 274 274 274 274 274 273 273 274
289 289 289 290 289 289 289 288 287 287 286 286 286 285 284 283 283 283 283 282 282 281 281 281 281 280 280 280 280 280 279 278 277 276 276 276 275 274 274 273 272 273 272 271 270 269 268 268 267 267 267 267 266 273 277 278 279 280 278 274 273 272 272 271 271 270 270 269 269 269 269 269 268 268 272 276 277 277 275 274 273 271 272 273 273
289 288 288 288 288 288 288 288 287 287 287 286 286 285 284 283 282 282 282 281 281 281 281 281 281 280 280 280 280 279 279 278 277 276 275 276 275 275 274 273 272 272 271 270 269 267 267 267 267 266 267 266 266 270 276 278 279 280 278 272 272 271 270 270 269 270 269 269 269 272 272 270 269 270 274 276 278 277 275 273 272 272 272 272 272
288 288 288 287 288 288 287 287 287 286 286 285 285 285 284 283 282 281 281 281 281 281 281 281 281 281 280 280 279 279 279 278 277 276 276 276 276 275 274 272 272 271 270 268 267 267 266 265 266 266 269 267 265 268 275 277 279 280 278 272 271 269 268 268 268 269 269 269 269 271 273 273 273 273 276 277 278 278 274 274 274 273 272 271 271
287 287 287 287 286 286 286 286 286 286 284 284 284 284 283 283 282 281 280 281 281 282 282 281 281 280 280 280 279 279 279 278 278 277 276 277 276 273 272 271 270 269 268 267 267 267 266 266 265 265 265 267 265 264 267 277 278 279 279 273 271 269 268 268 268 268 267 267 268 269 272 275 277 277 278 279 279 279 276 275 274 272 271 269 271
285 285 286 285 285 286 286 285 285 284 284 284 284 284 283 282 281 280 281 282 282 281 280 280 280 279 279 279 279 279 279 279 278 278 277 274 273 272 270 269 268 267 266 265 266 266 265 265 264 265 264 265 266 265 265 274 277 279 279 277 271 270 269 267 266 267 267 267 268 269 270 274 276 277 278 278 278 278 277 276 274 271 271 272 274
283 284 284 284 283 283 283 282 282 283 283 284 284 283 283 281 281 281 282 283 281 280 280 279 278 279 279 279 279 279 279 279 277 275 273 273 271 271 270 269 267 266 266 266 265 265 264 264 263 263 263 264 265 267 264 271 276 278 279 280 273 270 270 267 267 267 268 268 268 269 270 274 276 277 277 278 278 277 278 275 273 275 276 276 273
282 282 282 283 283 282 282 281 280 281 282 283 283 282 281 281 281 282 283 280 280 279 278 278 278 278 278 278 279 278 278 277 275 274 274 273 270 269 268 267 267 266 266 265 265 264 264 263 263 263 263 263 263 264 270 267 272 277 278 279 279 275 275 271 268 268 268 268 269 270 272 275 276 277 277 277 277 278 276 274 275 275 275 275 269
281 281 281 282 282 281 280 278 278 279 280 282 283 282 280 280 282 282 278 276 277 277 277 278 278 278 278 277 277 277 277 276 275 274 273 272 270 269 267 267 267 266 266 265 265 264 263 263 263 264 263 263 263 263 267 272 270 274 277 279 280 280 278 273 271 269 269 270 271 272 273 276 276 277 277 277 277 276 275 275 275 275 275 271 264
280 280 279 279 281 279 278 277 276 276 276 279 280 281 278 279 280 277 276 276 276 276 277 277 277 277 277 277 276 276 275 275 274 273 273 272 269 268 267 266 265 266 266 266 266 264 264 264 264 264 265 264 263 263 263 267 273 274 276 278 279 280 280 279 274 272 272 272 274 276 276 276 277 277 277 278 275 274 274 273 273 274 272 261 260
278 277 277 277 277 277 277 277 275 274 275 275 276 279 279 279 274 276 275 276 275 275 276 277 276 276 276 275 274 274 273 273 272 273 273 273 271 268 269 266 266 266 266 266 266 264 264 264 264 265 265 265 264 263 263 263 267 272 274 276 277 279 279 279 278 275 275 276 276 277 277 277 277 277 275 270 267 266 271 272 273 271 261 259 258
279 278 277 276 276 276 274 274 276 273 273 273 273 276 277 273 272 274 274 273 274 276 276 274 275 275 273 273 275 274 272 270 270 270 270 271 270 269 269 267 266 266 266 266 266 265 265 264 265 265 266 264 263 263 264 264 264 265 268 271 274 275 278 278 277 276 277 276 276 276 275 276 275 275 274 274 272 271 266 263 262 261 259 257 258
276 276 274 273 275 276 275 274 276 275 273 273 274 274 273 269 270 272 271 272 273 274 274 273 272 270 271 270 273 270 270 270 269 269 270 269 268 269 269 268 267 267 267 267 267 266 266 266 266 267 264 262 263 263 264 264 265 265 267 269 270 271 273 274 274 275 274 274 273 275 275 273 270 266 263 259 258 259 260 260 259 258 257 259 262
276 274 273 276 273 273 273 274 274 273 271 271 271 270 269 271 270 267 270 272 272 270 270 268 268 268 269 268 269 269 270 270 268 267 269 270 270 268 269 270 270 267 269 269 268 268 268 268 267 266 265 264 264 264 266 269 267 270 267 267 267 269 270 271 273 275 272 271 270 269 268 268 266 264 262 260 258 256 257 257 256 255 255 255 255
274 274 273 273 272 273 272 273 273 272 270 271 270 269 269 270 268 266 268 271 270 269 267 268 269 269 269 267 268 267 267 268 267 267 266 266 268 272 270 268 268 271 273 274 273 269 268 265 266 267 267 267 267 268 271 273 274 274 274 274 273 273 273 272 273 276 274 269 269 268 268 267 266 265 263 261 260 257 257 256 255 261 259 255 256
273 274 272 272 272 272 271 272 273 272 270 270 270 269 268 268 269 268 269 269 268 269 268 269 268 269 269 268 267 267 266 266 266 266 265 266 265 266 274 275 274 272 273 275 276 276 276 274 269 266 269 274 274 274 274 275 275 276 276 276 276 275 275 275 275 273 272 270 268 268 267 267 266 265 264 263 260 258 257 256 257 255 255 257 259
Wind_Speed
6 7 6 6 6 5 5 5 6 5 5 6 7 7 6 6 8 8 6 5 7 7 6 7 9 8 8 8 9 6 7 7 8 7 7 7 7 8 8 8 8 8 8 8 9 9 9 8 9 8 7 9 9 9 7 8 7 6 4 6 9 11 11 10 9 3 6 6 4 5 7 5 8 10 9 8 7 6 6 7 7 9 8 9 8
6 5 6 5 4 5 5 5 7 8 5 6 7 7 6 5 6 7 6 5 4 5 6 6 5 6 9 7 9 6 6 7 8 7 7 7 8 8 8 8 8 8 7 8 8 8 9 9 9 8 8 9 9 8 10 9 10 8 4 6 6 9 8 9 11 5 6 2 2 2 4 3 5 9 11 8 8 7 6 7 8 8 10 9 9
6 6 6 6 6 5 5 5 6 7 6 6 6 7 6 6 5 7 6 7 6 6 7 9 8 6 8 6 9 8 6 6 7 6 6 9 8 8 8 8 8 8 8 7 8 8 9 9 8 8 8 7 10 10 9 10 8 8 7 5 5 5 6 7 9 7 2 1 0 3 2 2 3 5 5 6 8 6 7 8 8 9 12 9 7
12 11 10 8 7 6 5 6 7 7 6 5 6 7 6 6 6 7 7 6 7 7 9 9 10 10 9 10 7 9 9 6 8 7 7 9 10 8 8 7 8 8 8 8 8 8 9 9 8 9 9 8 9 10 9 9 8 8 7 7 4 7 6 8 7 9 7 2 3 2 0 2 3 4 7 4 4 4 9 8 7 9 10 9 7
12 10 9 9 9 9 8 7 7 8 6 6 6 6 6 7 6 7 7 7 7 9 11 12 12 11 10 10 10 11 7 6 8 8 7 7 9 9 7 7 7 8 8 8 9 9 8 8 9 8 9 8 8 9 9 7 6 6 6 7 7 5 6 4 7 8 10 7 4 3 4 5 0 4 4 5 6 6 7 7 6 9 8 8 6
15 15 14 12 10 7 6 6 7 8 7 4 6 6 7 7 7 7 7 7 8 9 10 10 11 13 10 10 9 9 8 6 8 8 7 8 8 4 7 7 8 8 8 8 8 8 9 9 8 9 9 8 8 8 7 8 8 8 6 6 7 5 6 6 5 5 7 9 8 5 2 3 0 3 5 4 6 0 4 6 6 7 8 8 6
7 8 9 10 9 9 8 8 8 9 6 5 7 7 7 8 7 8 8 7 8 9 7 8 9 8 9 9 9 10 11 5 5 5 8 7 6 8 7 7 7 9 7 7 7 8 8 8 8 8 8 7 7 8 9 8 7 6 6 7 6 4 5 8 6 4 3 7 6 6 7 4 2 3 2 2 5 5 3 5 4 8 8 7 6
12 12 12 11 10 12 12 9 8 9 7 6 7 7 8 8 9 8 7 8 7 8 7 5 9 7 9 8 8 8 9 11 8 7 6 7 9 8 7 7 7 7 7 7 7 7 7 8 7 7 8 7 8 8 8 6 7 6 6 5 6 6 5 7 6 6 6 3 5 7 6 4 5 7 4 2 2 5 5 2 1 6 6 6 4
13 13 13 14 13 11 10 10 7 7 7 8 7 7 7 8 9 8 8 8 7 6 6 4 7 9 10 10 9 7 9 9 8 7 8 7 10 7 8 7 7 6 6 7 7 7 6 7 7 8 8 8 7 8 7 7 7 6 7 8 7 7 6 4 6 6 6 4 4 5 5 5 5 4 5 4 2 2 5 5 8 3 3 4 6
9 11 11 10 9 9 7 7 7 7 6 6 6 7 7 8 9 9 8 7 7 6 8 7 8 9 10 10 14 10 9 8 8 9 8 7 9 8 7 7 6 6 6 6 7 6 7 7 7 8 8 7 7 7 7 7 6 7 6 5 5 7 5 6 6 5 5 5 5 4 6 4 5 4 4 4 3 1 2 8 6 10 11 7 6
10 10 9 9 7 8 8 11 9 7 6 7 7 7 7 8 8 9 8 7 8 8 9 10 9 8 9 11 13 14 11 12 11 9 8 7 9 7 7 6 5 6 6 6 6 6 7 6 7 7 7 7 8 7 6 6 6 6 5 6 7 7 6 6 6 5 5 6 6 6 5 5 3 3 2 4 3 2 5 5 7 6 7 11 2
10 10 10 10 9 8 8 10 10 9 7 8 7 7 8 8 9 10 7 8 8 9 10 10 10 8 7 10 11 11 13 11 12 12 9 10 9 9 6 6 5 5 5 6 6 5 6 6 6 7 7 7 8 6 6 6 6 5 6 6 5 5 4 6 5 6 5 5 5 5 5 4 5 5 2 3 3 2 2 5 6 7 5 3 7
12 11 11 11 12 13 12 11 10 11 10 9 8 8 8 8 9 11 9 8 9 9 10 10 10 9 9 9 9 9 9 10 10 10 9 9 9 9 8 7 6 7 5 6 4 4 5 6 6 7 7 7 6 6 5 5 5 6 5 5 5 5 5 5 6 5 5 5 4 3 5 5 5 2 3 3 3 2 2 4 3 2 5 8 4
12 12 12 12 13 12 12 12 11 10 10 10 9 9 8 8 9 11 9 8 8 9 10 10 10 10 9 9 9 9 9 9 8 10 8 8 8 9 8 8 7 7 6 6 5 5 5 5 6 7 7 6 6 6 5 4 4 5 4 5 5 3 4 5 5 4 4 4 3 5 4 5 4 3 3 5 3 4 3 3 6 4 3 7 4
11 12 13 13 13 12 12 11 11 10 11 10 9 9 9 9 10 11 11 8 9 10 9 11 10 9 8 8 8 7 8 8 7 7 9 9 7 8 7 6 7 6 7 6 5 5 5 6 6 7 7 6 5 5 5 4 4 5 5 5 4 3 4 5 5 5 5 4 4 4 4 5 4 3 4 4 4 3 2 2 3 8 6 3 5
10 10 10 10 10 10 10 10 10 10 11 10 10 10 10 10 10 10 11 10 10 10 10 10 9 8 8 9 8 8 7 7 6 6 6 7 8 8 8 7 6 7 6 6 4 5 6 7 7 7 6 6 5 4 4 4 4 5 5 4 4 2 4 4 4 5 4 4 4 3 4 3 3 4 4 5 5 3 3 3 2 2 3 7 7
11 12 11 11 9 9 10 10 10 10 11 12 12 11 12 11 11 11 10 8 9 9 10 9 9 9 8 8 8 8 9 9 9 9 8 7 7 7 7 7 6 6 6 4 6 5 6 6 7 7 6 5 4 4 3 3 3 4 5 4 4 3 4 4 3 4 3 4 4 4 3 3 3 3 4 5 4 3 3 3 2 1 1 2 4
10 8 9 11 10 11 10 10 11 12 12 11 11 9 9 9 11 12 11 12 10 10 10 9 10 10 9 9 8 9 9 8 8 10 8 8 7 6 6 7 6 5 5 5 5 6 6 7 7 6 5 4 4 3 4 3 4 5 4 3 3 3 4 3 3 3 3 4 3 4 3 3 2 4 4 3 3 3 3 2 2 2 1 1 2
10 12 12 13 14 13 13 12 11 10 10 10 9 9 8 7 8 10 11 11 11 9 8 7 8 8 8 10 10 9 7 8 7 8 8 9 9 8 7 7 6 6 6 6 6 7 7 7 6 5 5 4 3 3 3 3 4 5 4 4 3 3 4 4 2 3 2 4 3 3 3 3 2 3 3 3 3 3 3 2 3 2 3 0 2
13 13 13 14 14 14 14 14 14 14 12 10 10 8 10 10 10 9 8 8 8 9 8 9 7 8 8 7 7 7 8 9 9 10 9 9 8 8 8 7 7 6 6 6 6 7 7 7 6 6 5 4 4 3 3 3 3 3 4 5 3 4 4 3 3 3 3 4 4 3 2 2 2 3 3 3 2 3 1 2 2 1 2 2 1
14 14 14 14 14 13 12 10 10 8 8 9 10 12 11 10 10 11 13 12 11 10 9 8 8 8 10 10 9 8 9 8 8 8 9 8 7 7 7 7 6 6 7 7 7 8 7 7 6 6 5 4 4 3 3 3 4 4 3 4 3 4 4 3 3 3 3 3 3 3 2 2 1 3 2 2 3 3 2 2 1 2 2 3 3
13 13 12 12 12 11 9 9 8 10 11 12 10 10 11 12 11 11 11 11 12 10 10 9 8 9 10 10 9 7 8 8 9 8 8 8 8 8 7 7 7 6 6 7 8 7 7 7 6 6 5 4 3 3 3 3 3 3 3 3 3 3 3 3 3 3 2 2 2 2 2 2 1 2 2 3 2 3 2 1 2 2 3 3 3
14 13 12 11 12 12 13 14 14 15 13 13 12 13 13 12 12 11 12 11 11 11 9 9 9 10 10 9 9 9 8 9 9 8 8 8 7 7 6 8 7 6 5 6 8 8 7 7 6 5 5 4 3 3 3 3 3 3 3 3 3 3 3 3 2 1 1 1 1 1 1 1 1 2 1 2 1 2 1 2 2 2 3 3 3
8 9 8 9 10 10 11 12 14 13 14 14 12 11 11 11 12 11 13 12 11 10 10 9 9 10 10 10 10 9 10 9 10 8 9 8 8 7 7 7 7 6 7 5 6 7 7 7 6 5 4 4 4 3 3 3 3 3 3 3 3 3 3 2 2 1 1 1 0 0 1 0 1 1 1 1 2 1 2 2 2 2 2 3 3
11 13 13 12 12 15 16 15 14 13 12 12 13 12 12 12 12 13 12 11 11 9 11 10 11 12 11 11 11 10 11 10 10 8 9 8 8 8 7 7 7 7 7 7 6 5 7 6 6 5 4 4 4 3 3 3 3 3 3 3 2 2 2 1 1 1 1 1 0 0 1 0 1 1 2 1 1 1 1 1 2 2 2 3 3
13 12 13 17 17 14 13 13 12 13 14 13 12 12 12 11 12 11 12 11 11 10 11 11 11 12 12 12 12 11 11 11 11 9 10 9 9 8 8 7 8 9 7 7 8 7 7 7 5 5 4 4 4 4 4 3 3 3 3 3 3 3 2 2 1 0 0 0 0 1 1 1 1 1 2 1 0 0 1 1 2 2 3 3 3
16 16 12 8 9 15 15 14 14 13 13 13 13 13 12 12 12 11 11 12 11 11 11 12 12 12 12 12 12 12 11 11 10 10 9 8 9 9 9 9 8 9 9 8 7 7 6 6 5 5 5 5 4 4 4 4 3 3 3 3 2 3 2 1 1 0 0 0 0 1 1 1 1 2 2 2 2 2 2 3 3 3 3 2 4
8 10 15 20 19 16 16 16 14 13 12 11 11 12 13 13 14 12 12 12 10 12 12 12 12 12 12 13 12 10 10 10 9 9 9 9 8 8 8 7 8 8 8 8 8 7 5 5 5 5 4 4 4 4 4 3 4 4 3 3 3 3 2 1 0 0 0 0 1 1 1 2 2 3 2 3 2 2 2 3 3 3 3 4 6
15 17 16 16 17 18 17 15 15 13 14 14 12 12 11 10 11 12 12 14 13 13 13 13 12 12 12 11 10 9 8 9 9 9 9 9 9 8 8 8 8 7 7 7 7 7 7 6 4 5 4 4 5 5 4 4 4 4 4 4 3 3 2 2 0 0 1 1 1 1 1 2 3 6 6 4 5 5 2 2 3 3 4 5 5
18 19 18 16 15 13 14 14 13 15 15 13 13 14 15 15 14 13 13 12 13 13 14 13 13 13 11 10 10 9 10 10 11 11 11 10 9 9 9 8 8 7 7 7 8 7 7 7 7 5 4 4 5 4 5 9 8 5 4 4 4 3 2 2 2 2 1 1 1 2 3 6 6 5 5 6 7 8 8 5 3 3 4 4 4
13 11 12 12 12 11 11 12 13 13 14 14 14 13 12 11 12 13 14 13 13 13 14 13 14 12 11 10 11 11 11 12 12 11 9 10 9 8 7 7 7 7 8 8 8 9 8 7 7 6 6 5 5 4 9 12 12 11 6 4 4 3 2 3 3 2 3 2 3 3 3 4 4 5 3 7 8 8 8 9 9 9 7 5 4
12 13 12 13 14 14 14 14 15 15 15 14 13 12 12 14 14 13 12 12 13 13 14 13 12 11 11 12 12 12 12 12 11 11 10 10 8 8 8 8 8 8 8 7 8 8 8 7 6 5 6 6 5 7 12 13 12 12 9 5 4 3 3 3 3 3 3 3 3 3 3 3 3 3 3 3 5 8 9 10 10 10 10 12 11
12 13 15 15 15 15 17 17 15 15 16 16 14 12 14 14 13 12 10 12 13 13 13 12 12 12 12 12 12 13 12 11 11 11 10 9 10 9 9 9 10 8 7 8 9 9 8 7 7 7 7 6 5 9 13 14 13 13 13 9 4 4 4 3 3 3 3 3 3 4 3 3 3 7 4 3 3 4 8 12 13 13 13 14 14
11 11 11 12 11 11 12 14 15 14 13 10 12 14 11 8 9 8 11 11 12 11 11 12 12 12 12 12 12 12 12 12 10 10 9 10 10 11 10 8 7 7 9 8 7 8 8 8 8 8 7 5 6 9 14 14 14 14 13 10 5 5 5 4 4 3 3 4 4 4 3 4 3 3 3 5 4 5 6 7 8 8 8 10 13
10 8 8 10 12 11 9 9 10 12 11 11 11 10 10 10 11 12 12 12 12 11 11 12 13 11 10 10 12 11 12 10 10 10 10 10 11 9 9 9 9 10 11 11 11 10 9 7 7 6 6 7 6 11 14 14 14 14 13 10 5 5 5 4 5 6 6 6 5 5 4 4 4 4 5 6 6 7 7 8 8 7 6 5 4
9 11 11 10 10 12 14 13 8 9 11 12 13 12 12 13 11 13 12 13 12 13 13 12 12 12 12 12 12 12 10 10 10 10 11 11 11 11 11 9 8 7 6 5 5 5 8 8 7 7 6 8 6 13 15 15 15 15 15 6 5 6 6 5 5 6 5 4 4 5 5 5 5 5 9 13 10 7 7 9 6 4 4 5 5
8 9 11 11 9 9 8 7 9 11 11 12 11 12 12 11 12 12 12 12 12 13 14 14 13 12 13 12 12 12 12 12 12 12 13 13 12 11 9 7 9 9 10 9 10 9 8 8 8 8 9 8 6 11 15 15 15 16 11 5 6 5 5 6 6 6 5 5 5 5 6 6 6 6 11 13 13 11 7 4 4 6 7 6 5
6 5 4 5 5 5 6 10 10 11 12 10 11 12 12 11 12 11 11 11 12 15 14 13 13 12 13 12 13 13 13 12 12 14 14 12 10 7 9 9 11 11 11 11 8 7 6 8 9 10 10 9 8 10 15 15 16 17 13 7 6 5 6 6 6 6 6 6 6 12 10 7 7 7 13 14 13 12 5 3 5 8 8 6 6
8 10 9 8 8 9 8 7 9 10 8 8 10 11 11 11 10 10 11 12 14 15 13 14 14 13 12 12 11 12 12 13 13 14 12 12 12 13 9 8 8 7 9 6 7 8 7 7 8 9 9 10 8 9 15 16 17 17 13 7 7 5 6 7 6 7 6 6 6 8 13 11 9 11 15 14 15 10 2 4 6 6 7 7 6
4 4 8 9 9 9 7 8 9 8 7 9 9 11 11 11 10 10 11 14 16 15 13 11 9 10 11 11 11 12 13 13 14 12 11 12 9 7 8 10 8 7 7 7 7 7 9 9 8 8 9 10 9 8 9 17 17 18 19 9 7 7 9 9 7 7 6 6 7 7 9 14 15 15 15 14 12 11 6 5 5 5 5 9 6
9 8 8 8 6 7 8 8 6 7 8 9 9 10 10 9 9 10 13 16 13 8 8 10 9 9 10 11 10 12 14 13 13 13 11 8 7 9 7 8 9 7 6 6 8 7 7 7 6 7 8 8 9 9 9 16 17 18 20 16 8 10 8 7 7 8 7 7 7 7 6 12 15 14 14 14 12 11 11 6 3 3 4 8 10
6 7 7 7 6 6 6 5 4 8 8 8 9 10 8 8 8 11 15 12 6 8 8 7 8 9 10 10 11 11 11 12 9 7 8 9 7 7 8 8 7 6 8 8 6 7 7 7 6 7 8 9 8 11 8 13 18 19 19 21 11 11 10 7 7 7 7 7 7 6 6 10 15 14 14 13 13 12 13 5 3 11 14 14 5
6 6 4 7 7 6 6 5 4 5 6 7 9 9 7 7 9 14 10 5 6 6 7 7 8 9 9 10 10 11 11 8 9 10 11 10 8 8 8 8 8 8 8 8 8 7 7 8 7 7 7 8 8 9 15 11 16 19 20 20 21 13 17 11 9 9 9 8 6 7 8 13 15 15 15 14 13 14 8 5 11 13 12 11 3
4 4 5 5 6 5 5 4 4 4 5 6 9 9 7 8 13 7 4 5 5 6 6 7 8 9 9 9 9 10 9 8 10 9 10 10 9 9 8 8 9 9 9 9 8 7 7 8 9 9 8 8 8 8 12 17 14 19 18 20 22 23 21 12 10 8 7 7 7 8 8 15 15 15 16 15 14 10 6 10 12 12 12 2 2
5 5 4 4 8 8 6 4 3 4 4 5 6 10 7 10 6 4 5 6 6 6 7 7 8 8 9 8 7 8 9 9 9 10 10 10 8 8 9 7 8 8 8 10 9 8 10 10 9 10 10 9 8 8 8 13 19 17 19 20 21 23 23 22 13 9 9 8 10 14 16 16 17 16 17 15 8 6 9 11 11 12 4 2 0
4 4 4 4 4 5 6 6 2 2 4 4 5 7 10 8 3 5 5 6 6 6 7 8 7 7 8 7 8 8 8 8 9 9 11 10 11 11 10 9 9 10 10 10 10 9 10 9 10 11 10 10 7 7 9 8 9 13 14 19 20 21 22 24 21 11 14 17 16 17 18 18 17 16 6 1 3 3 7 11 11 7 1 1 1
7 5 6 6 6 6 5 5 6 4 4 4 5 5 4 2 4 4 5 5 6 7 7 5 7 7 5 6 9 8 7 7 7 7 7 7 8 9 9 9 10 11 10 10 10 10 11 10 12 12 11 7 7 7 8 7 8 8 9 9 11 13 20 20 15 11 13 11 13 13 10 12 9 10 10 8 4 4 4 3 2 2 2 2 3
3 4 4 4 5 6 7 6 7 6 4 4 4 2 0 1 1 3 5 6 6 6 6 6 5 4 5 5 7 7 8 7 7 8 9 8 7 9 10 12 13 14 13 13 12 11 13 13 13 11 7 5 8 7 8 10 10 9 9 9 9 7 8 8 9 8 7 6 4 7 11 6 3 0 1 2 0 0 2 5 5 4 4 4 5
6 4 5 5 5 4 4 5 2 2 2 1 0 0 0 0 0 1 4 5 6 5 5 5 5 5 6 4 6 6 7 7 7 7 8 8 10 11 12 11 9 8 10 12 11 11 11 9 8 7 8 8 7 10 12 8 9 12 11 9 9 9 8 8 10 11 5 3 4 6 6 7 6 6 4 4 2 2 4 5 5 4 5 4 3
3 4 4 4 5 4 4 4 2 1 3 4 4 3 3 4 4 4 4 5 5 5 5 6 6 7 6 7 7 7 6 7 7 8 8 7 7 9 9 9 8 8 13 14 10 10 7 6 7 8 8 11 12 9 6 15 18 16 17 17 16 15 14 11 12 18 11 6 7 7 8 8 7 7 7 7 6 5 6 6 5 5 5 4 4
4 5 3 4 3 2 2 1 0 1 2 2 2 3 4 4 4 4 5 5 5 5 5 5 6 7 7 7 6 6 6 6 6 6 6 7 7 7 12 16 13 9 12 15 18 18 15 13 10 8 8 16 15 10 12 15 18 20 21 21 19 19 19 19 18 12 11 9 8 9 8 7 8 8 8 8 6 6 7 6 6 6 4 5 5
Wind_Direction
163 149 144 147 154 153 155 148 135 132 133 133 134 132 132 129 125 125 126 118 126 126 119 121 113 100 88 92 94 89 87 83 74 66 66 66 66 67 68 68 69 71 68 75 78 80 78 77 74 66 66 69 70 68 63 56 48 46 47 43 44 41 22 9 11 10 59 60 41 69 67 59 76 65 56 46 39 34 38 48 35 32 22 17 16
142 138 151 145 154 160 159 151 146 141 153 133 135 136 132 125 127 122 114 104 100 111 120 100 95 117 120 112 106 96 90 87 85 68 72 70 65 64 67 66 67 67 66 71 73 77 81 75 70 69 67 70 74 69 59 53 47 41 30 56 39 60 46 11 1 30 29 75 55 7 8 17 73 68 53 30 29 30 37 46 36 33 20 13 4
162 165 160 163 165 168 164 160 154 149 151 142 137 125 121 115 115 116 113 115 110 110 110 108 105 104 111 116 111 100 72 84 90 88 80 77 65 61 61 62 65 63 61 64 72 69 74 75 71 69 63 68 71 60 56 52 46 44 38 63 54 40 63 25 24 37 76 335 338 79 3 1 322 16 40 43 22 21 34 40 32 29 17 5 1
175 175 173 172 171 173 167 161 155 151 150 149 138 129 122 122 122 116 115 112 112 107 105 102 104 101 94 106 90 96 110 95 85 76 74 74 65 60 54 59 61 65 59 65 69 68 70 75 75 68 65 61 74 73 60 56 45 42 42 40 56 68 33 34 25 23 41 56 29 80 211 96 0 337 344 320 10 31 33 32 33 27 9 354 3
168 170 174 174 174 180 173 167 156 152 159 156 146 138 131 131 126 122 121 119 118 120 119 120 112 102 103 96 100 93 73 85 88 69 68 76 77 58 53 57 65 67 63 62 68 70 69 71 74 73 71 64 70 73 69 65 60 56 49 55 44 87 59 47 26 29 38 29 126 59 8 33 143 264 339 292 355 14 14 27 27 27 9 352 0
171 176 178 175 170 169 172 167 161 154 158 164 143 133 130 128 124 119 115 119 124 127 131 129 127 127 128 123 118 112 105 96 99 110 94 80 83 90 67 59 67 69 64 68 71 74 74 73 76 78 75 70 69 78 76 65 51 51 38 59 56 34 100 62 40 15 46 44 43 67 128 154 264 292 63 317 337 337 39 15 21 22 1 348 356
172 166 165 170 175 170 172 172 168 155 162 151 134 135 133 132 130 129 128 125 131 134 137 128 120 124 127 125 127 126 122 97 102 97 102 98 95 83 77 64 61 74 68 69 72 74 77 74 76 78 78 77 73 73 67 65 63 56 45 55 51 51 56 73 54 344 6 36 38 58 67 56 75 84 29 317 347 321 2 10 5 13 352 344 356
170 174 176 177 175 174 172 172 169 162 151 143 136 137 137 138 134 131 130 134 141 140 139 135 126 123 118 115 114 119 120 128 125 112 101 105 93 85 81 72 65 66 76 69 69 72 77 75 77 78 78 70 73 69 72 66 67 53 55 59 61 54 62 84 76 33 76 354 15 37 32 58 69 74 80 120 253 306 314 331 83 14 344 322 351
169 170 177 179 178 177 169 168 166 156 151 147 147 142 138 137 133 131 136 140 145 141 128 120 123 128 126 125 113 111 118 120 118 111 108 106 97 90 86 82 76 68 70 77 71 74 75 83 80 79 76 71 72 75 72 70 70 69 55 54 58 56 57 75 80 60 61 50 32 16 32 34 32 62 56 37 57 311 289 339 322 331 325 287 333
172 173 172 174 171 169 164 146 152 160 148 140 139 135 139 138 135 134 138 142 143 134 127 125 123 127 128 133 129 129 127 119 118 118 114 113 104 101 96 90 86 79 70 72 78 73 79 79 79 78 80 79 75 77 76 70 64 66 66 72 68 71 53 63 81 78 75 64 68 71 58 15 24 11 27 21 350 25 342 316 329 336 342 325 320
168 167 169 169 167 157 150 157 156 149 148 144 143 144 145 141 139 134 139 133 134 133 132 134 132 135 136 141 139 137 137 133 129 123 124 119 114 110 106 102 95 92 88 74 73 79 79 77 83 83 81 79 78 74 73 79 74 75 74 70 64 70 66 69 66 62 71 64 57 69 84 85 99 79 27 18 60 338 341 309 323 331 310 314 316
164 162 165 162 154 156 155 155 159 156 150 150 151 148 149 145 140 133 135 135 134 134 132 136 135 136 140 142 141 141 141 141 139 139 141 131 128 123 120 110 99 92 85 84 75 78 87 83 83 83 77 77 73 78 74 78 80 79 71 71 70 70 70 71 72 64 56 62 55 56 61 74 60 75 66 78 58 336 357 296 313 320 303 240 301
169 168 165 169 171 167 168 163 158 163 164 160 160 156 152 149 148 140 143 141 139 139 138 140 138 145 150 146 142 141 141 139 140 136 143 136 137 133 133 125 123 104 99 99 95 96 101 96 88 84 80 74 79 75 74 75 83 82 86 84 81 71 73 78 76 77 73 66 63 50 70 54 49 14 74 67 36 68 33 335 292 302 285 306 304
173 171 172 175 175 175 172 167 166 163 163 163 163 159 158 155 154 144 149 147 141 140 142 142 145 149 153 149 146 146 145 144 144 141 143 139 142 140 142 139 134 131 131 122 134 118 102 105 99 90 85 81 78 79 78 79 88 94 90 84 79 84 79 81 83 78 67 64 66 54 39 49 30 44 56 56 47 36 13 355 323 312 279 286 300
174 176 179 178 177 175 172 171 167 165 164 165 166 165 158 158 156 151 147 152 145 145 145 145 147 150 149 146 143 145 146 144 143 143 143 140 142 135 134 135 131 140 132 139 135 119 110 98 90 88 83 80 76 76 75 78 90 89 84 83 73 69 75 92 83 79 65 58 51 64 46 34 29 27 56 44 56 39 50 318 13 339 330 288 310
177 177 177 179 175 172 169 171 169 168 170 168 170 167 165 164 159 155 151 151 148 147 150 149 148 146 144 143 145 141 136 130 128 128 131 136 140 137 137 136 135 132 133 130 130 115 108 96 87 87 86 84 83 85 83 88 98 96 89 83 74 53 76 83 105 88 80 77 67 53 54 19 37 35 53 45 28 17 20 2 39 29 336 319 323
180 180 176 173 171 179 177 174 171 171 174 177 175 172 166 161 158 153 149 145 149 152 148 148 145 144 145 140 141 141 144 147 146 142 137 132 129 133 133 139 133 129 130 125 119 111 107 103 97 94 92 92 88 88 91 96 98 102 108 96 83 74 79 87 100 90 95 80 66 62 71 55 37 47 48 43 35 30 26 36 53 99 346 300 321
178 170 168 173 178 179 180 181 178 178 176 173 172 169 164 161 159 153 154 152 156 152 151 151 150 147 145 143 144 147 146 141 140 139 137 132 130 126 129 130 138 138 129 130 123 122 113 104 104 103 103 102 108 98 91 93 98 95 107 102 117 95 84 72 76 98 87 86 70 53 53 42 32 61 59 47 41 32 27 18 23 352 42 212 263
174 178 177 179 182 184 182 182 178 175 176 173 163 159 157 155 157 156 157 157 154 152 147 147 150 149 150 148 147 144 142 138 135 134 137 138 140 142 140 138 131 134 134 136 134 125 117 111 112 113 108 112 104 97 95 90 106 111 109 102 82 83 83 77 53 79 82 85 78 57 44 32 43 62 54 37 15 18 354 2 339 21 335 352 256
184 183 185 185 184 182 179 176 176 175 172 171 164 158 159 157 154 152 145 144 144 148 151 151 153 145 140 134 137 142 144 145 146 144 144 144 146 144 142 142 147 142 147 149 139 128 122 121 119 118 116 110 104 101 99 110 105 111 118 101 99 91 81 83 55 62 81 82 78 61 32 38 15 58 43 31 9 341 351 334 327 331 314 304 299
188 185 184 184 182 178 176 174 170 164 164 163 166 167 162 157 159 158 156 156 155 156 154 156 149 145 143 148 148 148 147 144 141 143 139 143 144 144 148 149 140 154 160 152 137 129 125 124 124 120 120 124 123 120 113 107 108 109 117 117 101 94 89 74 84 52 55 77 75 63 25 1 64 58 43 19 4 337 346 348 349 20 341 316 317
187 186 182 180 177 170 164 161 161 163 169 170 169 162 164 166 164 157 154 161 157 159 159 155 152 150 151 148 149 147 146 145 143 144 143 147 151 151 153 152 153 162 161 147 133 127 124 124 122 122 124 133 137 130 123 109 118 117 103 112 101 96 99 86 92 76 48 72 82 71 12 0 23 73 47 9 349 342 351 22 351 19 336 318 303
186 184 182 180 175 172 172 171 171 173 173 169 170 172 169 164 160 162 160 165 162 159 156 156 153 153 153 152 150 153 151 150 147 149 150 153 153 154 159 155 156 156 151 142 135 128 128 124 121 126 132 141 138 130 137 126 138 131 124 105 117 118 117 107 93 109 100 99 68 71 341 5 5 36 16 349 344 331 2 41 19 353 340 309 309
178 176 172 173 171 167 167 172 174 175 176 177 174 168 166 165 164 161 165 162 160 158 156 154 153 153 153 153 157 155 154 154 153 156 156 158 156 159 159 154 157 151 144 136 127 129 125 127 127 134 145 144 142 144 149 158 154 142 135 131 122 111 121 135 143 163 149 123 145 105 301 15 15 37 336 342 321 20 64 41 1 331 328 309 310
177 178 175 170 171 176 183 181 178 176 175 173 174 173 168 168 166 166 164 162 157 159 159 160 158 156 161 161 162 161 159 160 157 159 162 161 162 159 160 159 153 149 145 136 128 128 128 130 140 153 159 157 156 164 153 159 159 149 144 144 135 134 126 136 162 167 163 140 137 180 228 306 16 17 313 313 308 78 60 20 335 300 294 289 290
180 175 172 183 186 183 180 179 179 182 178 175 175 172 170 167 169 165 161 161 162 160 163 160 163 162 166 168 167 166 167 164 162 163 166 167 164 163 162 166 161 151 147 143 142 146 145 145 150 161 160 164 168 168 171 165 156 145 149 150 152 147 143 136 131 142 136 154 158 249 253 229 275 267 272 272 188 180 270 294 290 276 265 274 273
184 181 178 166 179 191 188 184 185 180 177 177 175 173 171 167 166 168 164 161 161 163 165 166 169 170 170 174 173 172 167 166 166 166 165 167 169 168 166 166 168 156 151 149 148 144 144 148 160 157 163 165 171 168 171 173 164 164 163 159 139 135 124 127 124 128 92 1 265 239 243 236 236 247 247 242 212 241 249 260 247 243 254 252 292
173 176 181 190 192 187 188 188 181 180 178 176 179 176 173 172 171 167 165 163 165 167 169 172 173 176 177 177 177 170 167 167 164 164 169 171 170 170 168 164 158 157 153 151 152 150 147 149 162 163 167 163 168 173 178 176 173 170 161 154 152 147 141 128 115 61 28 274 267 261 252 254 238 244 223 228 220 252 238 242 241 233 241 269 293
182 192 192 190 190 192 190 185 185 176 178 179 175 174 174 173 171 172 169 173 168 167 172 175 178 180 183 177 171 168 163 161 163 166 171 174 175 172 166 165 166 158 152 148 142 143 148 156 157 166 170 172 178 188 183 176 174 177 168 160 147 148 148 158 159 241 262 232 274 273 267 265 251 241 255 287 294 291 262 250 258 219 235 252 268
193 195 195 195 194 190 190 185 180 183 181 178 179 181 182 179 177 174 174 173 166 175 174 179 183 185 179 175 171 168 168 167 168 174 176 176 175 172 170 168 166 158 149 147 146 151 157 165 168 173 177 184 191 191 196 195 182 169 164 161 152 158 163 171 191 216 255 251 247 261 270 279 278 283 287 290 291 289 291 290 265 239 250 256 258
201 193 191 190 189 188 183 185 188 187 187 186 188 186 181 179 178 179 179 174 172 175 182 181 186 182 176 173 172 176 171 175 177 175 176 173 173 173 172 169 162 158 157 155 156 163 169 169 172 175 187 196 196 190 205 209 201 188 168 167 169 182 175 187 198 204 217 238 264 253 251 262 270 280 282 280 282 287 293 295 294 293 291 285 288
196 190 183 185 188 183 183 189 190 189 188 189 187 184 182 190 185 183 178 171 178 181 184 186 183 177 178 178 179 174 176 179 176 181 176 177 172 171 175 173 166 164 166 159 167 174 169 169 168 177 192 199 198 200 209 211 206 197 177 172 174 178 189 197 200 205 212 215 233 247 249 240 237 224 228 239 270 287 293 292 290 290 286 284 284
187 185 189 189 187 187 189 190 190 191 191 194 184 175 190 190 185 182 165 176 184 186 184 183 183 183 183 182 180 179 181 181 184 179 176 173 175 177 177 173 179 175 158 171 181 169 178 174 173 185 198 198 194 207 212 212 209 206 198 178 177 184 193 200 206 209 212 222 222 230 243 248 241 261 272 268 255 263 280 282 278 275 274 279 288
193 193 191 191 189 194 196 195 194 193 191 176 178 188 185 174 173 166 179 183 184 186 185 187 186 189 185 182 182 182 185 186 180 176 176 179 181 188 183 179 166 159 171 177 176 179 176 182 186 190 195 195 197 208 213 213 210 207 206 198 167 195 204 205 212 214 222 226 219 214 231 251 248 248 246 249 252 256 256 259 259 256 253 260 272
179 183 195 196 196 194 188 180 187 184 175 169 179 178 169 172 175 179 182 180 185 184 189 190 192 190 182 183 186 187 189 183 179 179 181 187 189 185 182 181 176 178 180 186 184 184 189 184 187 186 188 200 205 206 214 216 211 209 208 201 174 201 204 212 218 222 227 225 221 226 224 229 235 245 245 242 240 245 250 250 252 256 254 249 260
193 189 191 185 189 189 189 193 167 154 171 178 182 172 172 183 177 181 181 184 183 187 193 192 195 189 188 188 187 189 187 182 181 182 186 192 193 190 187 182 178 185 189 176 192 187 182 186 186 182 187 209 210 206 212 217 213 209 210 196 180 200 209 213 211 213 214 211 215 221 228 234 237 240 251 262 263 256 254 257 261 263 267 281 272
194 189 197 195 190 188 182 152 159 170 170 183 175 172 177 173 178 187 183 184 183 192 197 197 195 190 191 190 188 187 189 187 186 186 194 196 192 193 191 179 181 189 181 190 193 191 187 181 182 187 195 210 206 209 211 215 214 210 207 183 194 199 207 211 218 213 214 215 214 219 222 223 231 234 251 259 260 264 261 256 275 290 290 277 281
176 175 177 170 173 157 154 159 164 176 181 173 169 173 172 177 183 181 180 185 190 201 199 194 196 194 192 189 190 189 190 190 188 195 198 199 195 195 193 184 188 186 192 200 188 186 187 186 186 192 197 200 207 209 211 215 214 212 204 188 194 193 212 215 217 219 214 216 213 224 226 218 222 229 248 255 257 260 252 264 296 288 278 289 292
161 163 165 165 164 158 158 153 159 174 176 160 160 162 168 179 179 179 181 188 200 205 195 196 200 195 192 191 190 191 193 192 195 200 197 196 196 197 191 183 200 194 199 180 183 187 192 195 198 196 192 199 208 209 213 215 215 214 209 177 192 197 214 221 213 218 217 208 220 227 234 232 225 232 244 250 253 251 260 276 271 267 279 285 289
124 141 157 150 142 126 134 149 168 172 145 149 150 159 171 176 179 175 185 201 206 204 199 199 193 188 190 191 192 193 196 195 200 200 198 203 193 172 182 189 197 195 190 186 188 193 194 202 194 190 201 204 204 211 214 215 215 215 212 190 183 195 217 216 210 210 211 224 213 219 232 235 238 240 246 250 252 252 262 259 258 262 281 288 292
143 138 127 117 121 133 150 161 155 142 145 148 151 157 174 177 172 178 201 210 207 191 188 194 187 188 192 195 195 195 198 202 200 200 196 188 179 187 178 185 195 192 185 188 193 199 204 207 195 203 203 212 207 207 213 214 217 216 215 206 189 208 215 209 210 211 209 209 214 218 210 230 235 238 244 244 244 256 263 264 260 252 258 275 284
67 83 97 100 97 99 101 101 125 144 147 150 153 162 170 162 172 198 212 209 183 187 185 180 184 191 195 196 197 201 201 202 194 173 176 191 191 180 187 190 185 186 195 201 197 199 205 211 208 209 213 218 216 212 205 219 219 220 218 216 198 205 205 203 213 215 214 215 211 214 215 227 233 236 237 237 247 257 261 254 263 278 282 285 309
101 82 73 107 110 117 126 131 130 135 141 150 149 157 159 170 185 215 211 179 183 173 174 180 187 193 196 197 199 197 197 190 185 184 184 193 182 182 187 178 180 187 197 205 206 203 204 215 218 223 222 222 218 221 217 217 223 222 221 220 220 208 212 210 208 216 212 214 210 216 220 230 235 236 233 234 245 252 264 277 273 275 279 287 46
61 92 121 110 112 117 115 111 120 126 137 146 153 154 166 173 212 206 139 157 160 167 166 180 193 198 197 199 199 196 194 189 186 181 187 188 186 187 181 187 187 187 195 206 214 203 208 219 220 227 226 222 218 213 225 222 221 224 222 221 224 224 215 210 209 217 212 210 211 214 209 229 239 235 232 239 242 246 255 264 271 275 275 330 84
128 129 126 129 144 143 131 120 121 132 138 148 152 155 162 196 218 137 170 155 163 159 172 187 195 198 198 200 190 192 193 192 188 179 185 191 187 176 187 194 181 196 200 209 215 197 210 218 221 228 228 221 214 213 219 227 225 224 222 222 225 227 226 220 218 215 213 212 217 217 224 234 238 234 236 240 236 245 266 274 274 268 278 96 82
106 117 130 126 114 120 135 143 151 158 157 160 168 153 171 214 143 164 164 159 150 161 178 196 195 196 199 182 187 198 195 194 187 189 195 192 185 184 192 187 188 202 204 210 213 201 215 217 225 231 230 223 208 206 217 220 229 230 229 226 226 230 232 229 227 219 216 222 226 230 232 234 234 238 240 143 154 200 252 263 267 277 88 223 176
156 163 133 123 132 133 146 158 175 212 190 195 180 203 188 120 158 159 153 152 162 174 189 190 197 198 188 182 191 193 192 190 190 193 195 189 185 188 191 190 196 201 207 212 214 208 215 217 226 231 229 214 208 209 212 211 214 216 222 221 223 231 234 233 235 233 233 231 232 231 229 235 229 207 211 226 210 230 265 289 296 274 254 222 221
131 138 123 121 143 156 167 174 196 204 199 200 206 213 117 58 96 148 143 145 159 176 183 195 195 187 189 190 198 190 182 191 196 189 192 198 199 191 193 201 198 201 202 213 211 214 216 217 223 229 220 207 221 215 213 208 209 206 210 210 211 211 221 224 226 224 222 224 214 233 239 253 244 15 64 50 351 122 225 246 252 245 237 237 236
138 162 158 163 159 164 175 195 185 103 145 166 326 21 65 162 91 122 141 145 164 172 170 175 182 174 195 190 192 187 194 193 199 207 221 209 196 196 207 222 225 203 204 206 208 221 225 227 224 221 202 225 226 224 225 205 214 207 202 196 198 205 207 219 224 222 214 211 211 226 229 236 223 226 231 238 257 280 265 246 251 263 263 259 261
142 142 150 145 158 162 175 212 230 117 149 175 193 198 195 190 167 163 152 157 167 167 177 189 184 187 191 184 194 198 194 194 195 203 211 243 254 224 220 218 226 206 219 228 219 225 220 194 215 226 198 213 226 231 201 208 215 213 213 209 208 205 206 210 218 223 215 208 215 214 218 217 221 216 224 227 231 232 250 263 255 242 238 238 246
141 126 157 167 174 170 180 216 249 126 134 156 183 208 201 204 182 176 172 179 165 178 198 203 187 201 193 191 191 196 201 200 203 200 204 217 242 259 239 232 229 219 226 229 232 236 233 216 202 232 225 228 238 236 213 210 212 213 213 214 212 211 212 213 213 212 223 215 207 215 217 210 217 215 216 220 213 217 231 234 249 242 233 236 247